Location: Marcé
(47.5801°N, 0.3280°W)
Time: 14:48:33
(UTC+01:00)

Transit 2A - Pass Details

Date: 07 December 2021
Orbit: 591 x 967 km, 66.7° (Epoch: 21 January)

Event Time Altitude Azimuth Distance (km) Brightness Sun altitude
Rises 08:19:27 0° 326° (NW) 3,657 - -3.1°
Exits shadow 08:19:32 - 326° (NW) 3,631 8.9 -3.1°
Reaches altitude 10° 08:22:05 10° 330° (NNW) 2,715 8.3 -2.7°
Maximum altitude 08:28:27 62° 51° (NE) 1,069 6.9 -1.8°
Drops below altitude 10° 08:34:34 10° 132° (SE) 2,612 10.8 -1.0°
Sets 08:37:03 0° 135° (SE) 3,510 11.7 -0.6°
